Location: La Oliva
(42.2466°N, 2.9955°E)
Time: 11:06:09
(UTC+00:00)

IRS-1A Rocket - Pass Details

Date: 22 April 2021
Orbit: 852 x 930 km, 99.2° (Epoch: 10 May)

Event Time Altitude Azimuth Distance (km) Brightness Sun altitude
Exits shadow 19:43:32 - 158° (SSE) 2,660 6.3 -12.0°
Reaches altitude 10° 19:43:56 10° 157° (SSE) 2,504 6.2 -12.1°
Maximum altitude 19:49:30 76° 73° (ENE) 909 4.3 -13.0°
Drops below altitude 10° 19:55:12 10° 349° (N) 2,570 7.3 -13.9°
Sets 19:57:38 0° 348° (NNW) 3,526 8.1 -14.3°
